SL-16 DEB, 22425

Orbit data source: Space-Track

SL-16 DEB, 22425 is space debris in LEO originally from a launch on Fri, 25 Dec 1992 UTC launched from the Tyuratam Missile And Space Complex (TTMTR). Debris objects in space refer to the collection of defunct objects orbiting the Earth. Examples of debris include non-operational satellites, rocket bodies, and fragments generated from explosions, collisions, or faulty payload assembly.

Loading next visibility...
Identifier
22425, 1992-093DS
Orbit
LEO
Country
Flag of CISCIS
Related business
Manufacturer
Unknown
Mission
Spacecraft
Bus & Motor
Unknown
Mass
Unknown
Launch date (UTC)
1992-12-25 (33 years ago)
Launch vehicle
Unknown
Launch site
Tyuratam Missile And Space Complex (TTMTR)
Object type
Payload
Rocket body
Debris
Shape & HBR
Unknown shape, 0.1 m
Radar Cross Section
Small (<0.1 m²)

Expand to show TLE details & history
Last TLE update: 18 hours ago

TLE from 18 hours ago
0 SL-16 DEB
1 22425U 92093DS  25350.09117185  .00000256  00000-0  21121-3 0  9998
2 22425  71.1762 220.3388 0110888 151.7254 359.2665 13.95021197672928
Epoch: 2025-12-16T02:11Z
TLE epoch observation values (Epoch: 2025-12-16T02:11:17.247Z)
Latitude
27.38771°
Longitude
-87.58119°
Altitude
833.083 km
Speed
7.48 km/s
True Right ascension
02h 00m 53s
True Declination
27° 14' 56"
Sunlit
Object was in full shadow at epoch
Visualization orbit readout
Latitude
Unknown
Longitude
Unknown
Altitude
Unknown
Speed
Unknown
Apparent Right ascension
Unknown
Apparent Declination
Unknown
Sunlit
N/A
Visualization observer readout
Local Sidereal Time
18:58:01
Azimuth
Unknown
Elevation
Unknown
Doppler factor
Unknown
Orbital elements
Apogee altitude
989.82 km
Perigee altitude
828.208 km
Semi-major axis
7,287.151 km
Eccentricity
0.01109
Inclination
71.1762°
RAAN
220.3388°
Arg. of periapsis
151.7254°
True anomaly
359.25°
Mean anomaly
359.2665°
Eccentric anomaly
359.25828°
Mean motion
3.48904 °/min
Orbital period
103.18 mins
BSTAR
0.00021121
Loading maneuver chart data...
Computing Atmospheric mass density...
Loading historical data...
Loading historical data...
Loading historical data...
Loading historical data...
Loading historical data...
Loading historical data...
Loading historical data...

Documentation

Showing up to 5 results
|